Regional Weather Roundup
Issued by NWS

Home | Current Version | Previous Version | Text Only | Print | Product List | Glossary On
Versions: 1 2 3 4 5 6 7 8 9 10 11 12 13 14 15 16 17 18 19 20 21 22 23 24 25 26 27 28 29 30 31 32 33 34 35 36 37 38 39 40 41 42 43 44 45 46 47 48 49 50
000
ASUS45 KCYS 020610
RWRWY

WYOMING REGIONAL WEATHER ROUNDUP
NATIONAL WEATHER SERVICE CHEYENNE WY
1200 AM MDT THU JUL 02 2015

NOTE:  "FAIR" INDICATES FEW OR NO CLOUDS BELOW 12,000 FEET
WITH NO SIGNIFICANT WEATHER AND/OR OBSTRUCTIONS TO VISIBILITY.

WYZ001-020700-
YELLOWSTONE NATIONAL PARK

CITY           SKY/WX    TMP DP  RH WIND       PRES   REMARKS
LK YELLOWSTONE   N/A     55  42  61 NW3       30.35S
6HR MIN TEMP:  55; 6HR MAX TEMP:  79;

W YELLOWSTONE  NOT AVBL

$$
WYZ002>013-054>058-071-098>099-020700-
NORTHERN WYOMING

CITY           SKY/WX    TMP DP  RH WIND       PRES   REMARKS
JACKSON        FAIR      55  46  71 N3        30.21S
CODY           FAIR      68  50  52 NW13G18   30.19S
GREYBULL       FAIR      75  51  43 NW16      30.04R
6HR MIN TEMP:  75; 6HR MAX TEMP:  94;

WORLAND        FAIR      71  59  65 NW5       30.05R
6HR MIN TEMP:  70; 6HR MAX TEMP:  91; 6HR PCP:  0.07;

SHERIDAN       MOCLDY    67  56  67 W7        30.13F
6HR MIN TEMP:  66; 6HR MAX TEMP:  89;

BUFFALO        MOCLDY    64  57  78 W10       30.20F
6HR MIN TEMP:  64; 6HR MAX TEMP:  83; 6HR PCP:  0.07;

GILLETTE       CLOUDY    61  58  90 CALM      30.12F
6HR MIN TEMP:  59; 6HR MAX TEMP:  82;

NEWCASTLE      NOT AVBL

$$
WYZ014>020-022>026-101>103-020700-
CENTRAL WYOMING

CITY           SKY/WX    TMP DP  RH WIND       PRES   REMARKS
BIG PINEY      FAIR      60  36  40 NW14      30.26R
6HR MIN TEMP:  60; 6HR MAX TEMP:  86;

PINEDALE       FAIR      59  41  51 W7        30.27S
DUBOIS         NOT AVBL
LANDER         MOCLDY    69  54  58 W8        30.17R
6HR MIN TEMP:  68; 6HR MAX TEMP:  86; 6HR PCP: TRACE;

RIVERTON       FAIR      72  50  45 SW9       30.16R
6HR MIN TEMP:  71; 6HR MAX TEMP:  90;

CASPER         MOCLDY    63  56  78 N8        30.13R
6HR MIN TEMP:  62; 6HR MAX TEMP:  90; 6HR PCP:  0.06;

DOUGLAS        MOCLDY    65  59  81 N21G29    30.12R
6HR MIN TEMP:  64; 6HR MAX TEMP:  87; 6HR PCP:  0.19;


$$
WYZ021-027>030-104>119-020700-
SOUTHERN WYOMING

CITY           SKY/WX    TMP DP  RH WIND       PRES   REMARKS
EVANSTON       FAIR      70  41  34 NW3       30.28S
6HR MIN TEMP:  70; 6HR MAX TEMP:  86;

FORT BRIDGER   CLEAR     66  41  39 W8        30.29S
ROCK SPRINGS   FAIR      67  48  50 NW5       30.21R
6HR MIN TEMP:  67; 6HR MAX TEMP:  88;

RAWLINS        FAIR      58  53  84 NE8       30.22R
6HR MIN TEMP:  58; 6HR MAX TEMP:  67;

LARAMIE        FAIR      55  52  89 S8        30.24F
6HR MIN TEMP:  55; 6HR MAX TEMP:  75; 6HR PCP:  0.04;

CHEYENNE       FAIR      59  52  77 W10       30.14F
6HR MIN TEMP:  59; 6HR MAX TEMP:  74; 6HR PCP:  0.31;

TORRINGTON     FAIR      65  58  78 CALM      30.02F
6HR MIN TEMP:  65; 6HR MAX TEMP:  88; 6HR PCP: TRACE;


$$


USA.gov is the U.S. government's official web portal to all federal, state and local government web resources and services.